VK4VP-5 Buderim QLD AU current weather conditions

sailwx.info

Air temperature 13.9° C
Dewpoint 13.1° C

Last reported at 2015-Jul-01 10:49 UTC.
Time now 2015-Jul-01 11:57 UTC

Location: S 26°42' E 153°05'.
View on Google Maps.

See reports from other nearby stations

  
Tides and Currents Weather Stations Pressure Air Temp Water Temp Dewpoint Dewpoint Depression Visibility Wind Speed Wind Dir Waves Ship Positions
date/time (UTC)wind fromknots sea level pressurealtimeterstation pressurevisibilityair tempwater tempwave heightnotes
2015-Jul-01 10:49 13.9
2015-Jul-01 10:39 13.9
2015-Jul-01 10:29 14.4
2015-Jul-01 10:23 14.4
2015-Jul-01 10:19 14.4
2015-Jul-01 10:09 14.4
2015-Jul-01 09:59 14.4
2015-Jul-01 09:53 14.4
2015-Jul-01 09:49 14.4
2015-Jul-01 09:43 15.0
2015-Jul-01 09:39 178 15.0
2015-Jul-01 09:29 176 15.0
2015-Jul-01 09:23 15.0
2015-Jul-01 09:19 15.0
2015-Jul-01 09:09 15.6
2015-Jul-01 08:59 15.6
2015-Jul-01 08:49 15.6
2015-Jul-01 08:43 15.6
2015-Jul-01 08:39 15.6
2015-Jul-01 08:33 16.1
2015-Jul-01 08:29 16.1
2015-Jul-01 08:19 16.1
2015-Jul-01 08:09 16.1
2015-Jul-01 07:59 16.7
2015-Jul-01 07:49 16.7
2015-Jul-01 07:39 17.2
2015-Jul-01 07:29 17.2
2015-Jul-01 07:19 17.8
2015-Jul-01 07:09 17.8
2015-Jul-01 06:59 18.3
2015-Jul-01 06:49 18.9
2015-Jul-01 06:43 18.9
2015-Jul-01 06:39 19.4
2015-Jul-01 06:29 20.0
2015-Jul-01 06:19 20.0
2015-Jul-01 06:09 156 20.6
2015-Jul-01 05:59 20.6
2015-Jul-01 05:53 157 20.6
2015-Jul-01 05:49 157 20.6
2015-Jul-01 05:43 156 20.6
2015-Jul-01 05:39 156 20.6
2015-Jul-01 05:29 156 20.6
2015-Jul-01 05:19 157 21.1
2015-Jul-01 05:09 156 20.6
2015-Jul-01 05:03 157 20.6
2015-Jul-01 04:59 156 20.6
2015-Jul-01 04:49 157 20.6
2015-Jul-01 04:39 157 20.6
2015-Jul-01 04:33 156 20.6
2015-Jul-01 04:29 157 20.0
2015-Jul-01 04:19 156 0 gusting 5 20.0
2015-Jul-01 04:09 171 1 gusting 6 21.1
2015-Jul-01 04:03 175 0 gusting 5 21.1
2015-Jul-01 03:59 177 0 gusting 5 21.1
2015-Jul-01 03:49 191 0 gusting 5 21.1
2015-Jul-01 03:43 196 21.1
2015-Jul-01 03:39 196 20.6
2015-Jul-01 03:29 196 20.6
2015-Jul-01 03:19 195 20.0
2015-Jul-01 03:09 196 20.6
2015-Jul-01 02:59 196 20.6
2015-Jul-01 02:49 195 21.1
2015-Jul-01 02:43 196 1 gusting 6 21.7
2015-Jul-01 02:39 196 1 gusting 7 21.7
2015-Jul-01 02:29 197 0 gusting 5 22.2
2015-Jul-01 02:23 198 0 gusting 3 22.2
2015-Jul-01 02:19 198 0 gusting 5 22.2
2015-Jul-01 02:09 198 0 gusting 5 22.2
2015-Jul-01 01:59 198 22.2
2015-Jul-01 01:49 198 21.7
2015-Jul-01 01:39 199 21.7
2015-Jul-01 01:29 198 21.1
2015-Jul-01 01:23 198 21.1
2015-Jul-01 01:19 198 21.1
2015-Jul-01 01:09 199 20.6
2015-Jul-01 01:03 198 20.6
2015-Jul-01 00:59 198 20.6
2015-Jul-01 00:49 217 20.6
2015-Jul-01 00:39 222 20.0
2015-Jul-01 00:29 221 19.4
2015-Jul-01 00:23 222 19.4
2015-Jul-01 00:19 222 19.4
2015-Jul-01 00:09 222 19.4
2015-Jul-01 00:03 222 0 gusting 6 19.4
2015-Jun-30 23:59 223 1 gusting 6 18.9
2015-Jun-30 23:49 224 18.9
2015-Jun-30 23:43 224 18.3
2015-Jun-30 23:39 224 18.3
2015-Jun-30 23:29 224 18.3
2015-Jun-30 23:19 224 17.8
2015-Jun-30 23:13 222 17.2
2015-Jun-30 23:09 221 17.2
2015-Jun-30 23:03 219 16.7
2015-Jun-30 22:59 219 16.7
2015-Jun-30 22:49 220 16.1
2015-Jun-30 22:39 220 16.1
2015-Jun-30 22:29 219 15.6
2015-Jun-30 22:23 219 15.6
2015-Jun-30 22:19 219 15.6
2015-Jun-30 22:09 220 15.0
2015-Jun-30 22:03 14.4
2015-Jun-30 21:59 14.4
2015-Jun-30 21:53 13.9
2015-Jun-30 21:49 13.9
2015-Jun-30 21:39 13.9
2015-Jun-30 21:33 13.9
2015-Jun-30 21:29 13.9
2015-Jun-30 21:23 13.3
2015-Jun-30 21:19 13.3
2015-Jun-30 21:09 13.3
2015-Jun-30 20:59 175 13.3
2015-Jun-30 20:49 168 13.3
2015-Jun-30 20:39 13.3
2015-Jun-30 20:33 168 13.3
2015-Jun-30 20:29 168 13.9
2015-Jun-30 20:19 168 13.9
2015-Jun-30 20:13 168 13.9
2015-Jun-30 20:09 168 13.9
2015-Jun-30 20:03 168 13.9
2015-Jun-30 19:59 168 13.9
2015-Jun-30 19:53 168 13.9
2015-Jun-30 19:49 13.9
2015-Jun-30 19:39 13.9
2015-Jun-30 19:33 168 13.9
2015-Jun-30 19:29 168 13.3
2015-Jun-30 19:23 13.3
2015-Jun-30 19:19 13.3
2015-Jun-30 19:09 13.3
2015-Jun-30 18:59 13.3
2015-Jun-30 18:53 13.3
2015-Jun-30 18:49 168 13.3
2015-Jun-30 18:39 168 13.3
2015-Jun-30 18:33 168 13.3
2015-Jun-30 18:29 13.3
2015-Jun-30 18:19 13.3
2015-Jun-30 18:09 168 13.9
2015-Jun-30 17:59 13.9
2015-Jun-30 17:53 13.9
2015-Jun-30 17:49 13.9
2015-Jun-30 17:43 168 13.9
2015-Jun-30 17:39 168 13.9
2015-Jun-30 17:33 168 13.9
2015-Jun-30 17:29 168 13.9
2015-Jun-30 17:19 14.4
2015-Jun-30 17:13 14.4
2015-Jun-30 17:09 168 14.4
2015-Jun-30 16:59 168 14.4
2015-Jun-30 16:49 168 14.4
2015-Jun-30 16:39 168 14.4
2015-Jun-30 16:33 168 14.4
2015-Jun-30 16:29 168 14.4
2015-Jun-30 16:19 168 14.4
2015-Jun-30 16:13 168 14.4
2015-Jun-30 16:09 168 14.4
2015-Jun-30 15:59 168 14.4
2015-Jun-30 15:49 14.4
2015-Jun-30 15:39 14.4
2015-Jun-30 15:33 14.4
2015-Jun-30 15:29 14.4
2015-Jun-30 15:19 14.4
2015-Jun-30 15:13 168 14.4
2015-Jun-30 15:09 168 14.4
2015-Jun-30 14:59 14.4
2015-Jun-30 14:53 14.4
2015-Jun-30 14:49 168 14.4
2015-Jun-30 14:39 14.4
2015-Jun-30 14:29 14.4
2015-Jun-30 14:19 14.4
2015-Jun-30 14:09 14.4
2015-Jun-30 13:59 14.4
2015-Jun-30 13:53 14.4
2015-Jun-30 13:49 14.4
2015-Jun-30 13:39 14.4
2015-Jun-30 13:29 15.0
2015-Jun-30 13:19 168 15.0
2015-Jun-30 13:13 168 15.0
2015-Jun-30 13:09 15.0
2015-Jun-30 13:03
2015-Jun-30 12:59 15.6
2015-Jun-30 12:49 168 15.6
2015-Jun-30 12:43 168 15.6
2015-Jun-30 12:39 168 15.6
2015-Jun-30 12:29 168 15.6
2015-Jun-30 12:19 168 15.6
2015-Jun-30 12:09 168 15.6
2015-Jun-30 11:59 168 15.6
2015-Jun-30 11:53 168 15.6
2015-Jun-30 11:49 168 15.6
2015-Jun-30 11:43 168 16.1
2015-Jun-30 11:39 168 16.1
2015-Jun-30 11:29 168 16.1
2015-Jun-30 11:19 168 16.1
2015-Jun-30 11:13 168 16.1
2015-Jun-30 11:09 168 16.1
2015-Jun-30 11:03 168 16.1
2015-Jun-30 10:59 168 16.1
2015-Jun-30 10:49 168 15.6
2015-Jun-30 10:39 168 16.1
2015-Jun-30 10:33 168 16.1
2015-Jun-30 10:29 168 16.1
2015-Jun-30 10:19 168 15.6
2015-Jun-30 10:09 15.6
2015-Jun-30 09:59 168 15.6
2015-Jun-30 09:53 168 15.6
2015-Jun-30 09:49 15.6
2015-Jun-30 09:39 16.1
2015-Jun-30 09:29 16.1
2015-Jun-30 09:19 16.1
2015-Jun-30 09:09 16.1
2015-Jun-30 09:03 16.1
2015-Jun-30 08:59 16.7
2015-Jun-30 08:49 16.7
2015-Jun-30 08:39 16.7
2015-Jun-30 08:29 16.7
2015-Jun-30 08:23 16.7
2015-Jun-30 08:19 16.7
2015-Jun-30 08:13 17.2
2015-Jun-30 08:09 17.2
2015-Jun-30 07:59 17.2
2015-Jun-30 07:49 17.2
2015-Jun-30 07:39 17.8
2015-Jun-30 07:29 18.3
2015-Jun-30 07:23 18.3
2015-Jun-30 07:19 18.3
2015-Jun-30 07:09 18.9
2015-Jun-30 07:03 168 18.9
2015-Jun-30 06:59 168 19.4
2015-Jun-30 06:49 19.4
2015-Jun-30 06:43 19.4
2015-Jun-30 06:39 19.4
2015-Jun-30 06:29 20.0
2015-Jun-30 06:23 181 20.0
2015-Jun-30 06:19 181 20.0
2015-Jun-30 06:09 181 20.6
2015-Jun-30 06:03 181 20.6
2015-Jun-30 05:59 181 0 gusting 3 20.6
2015-Jun-30 05:49 181 21.1
2015-Jun-30 05:43 181 21.1
2015-Jun-30 05:39 181 21.1
2015-Jun-30 05:33 181 21.1
2015-Jun-30 05:29 181 0 gusting 3 21.1
2015-Jun-30 05:23 181 0 gusting 5 21.1
2015-Jun-30 05:19 181 0 gusting 5 21.1
2015-Jun-30 05:13 181 0 gusting 6 21.1
2015-Jun-30 05:09 181 0 gusting 6 21.1
2015-Jun-30 04:59 179 1 gusting 6 21.1
2015-Jun-30 04:49 181 1 gusting 6 21.1
2015-Jun-30 04:43 181 1 gusting 6 21.1
2015-Jun-30 04:39 181 0 gusting 5 21.7
2015-Jun-30 04:29 181 0 gusting 6 21.7
2015-Jun-30 04:19 181 21.7
2015-Jun-30 04:13 182 0 gusting 5 21.7
2015-Jun-30 04:09 182 0 gusting 6 21.7
2015-Jun-30 04:03 182 0 gusting 6 21.1
2015-Jun-30 03:59 182 0 gusting 3 21.7
2015-Jun-30 03:49 184 0 gusting 6 21.7
2015-Jun-30 03:39 189 0 gusting 6 21.7
2015-Jun-30 03:29 189 0 gusting 3 21.7
2015-Jun-30 03:19 189 1 gusting 7 21.7
2015-Jun-30 03:09 189 21.7
2015-Jun-30 02:59 189 0 gusting 3 21.1
2015-Jun-30 02:49 189 21.1
2015-Jun-30 02:39 189 0 gusting 5 21.1
2015-Jun-30 02:33 189 21.1
2015-Jun-30 02:29 189 0 gusting 6 21.1
2015-Jun-30 02:19 189 0 gusting 3 21.1
2015-Jun-30 02:09 189 21.1
2015-Jun-30 01:59 189 0 gusting 6 20.6
2015-Jun-30 01:49 190 1 gusting 7 20.6
2015-Jun-30 01:39 191 0 gusting 6 20.0
2015-Jun-30 01:29 188 2 gusting 8 20.6
2015-Jun-30 01:23 185 2 gusting 6 20.6
2015-Jun-30 01:19 186 2 gusting 7 20.6
2015-Jun-30 01:09 186 2 gusting 8 20.0
2015-Jun-30 00:59 186 3 gusting 8 20.0
2015-Jun-30 00:53 190 4 gusting 8 20.0
2015-Jun-30 00:49 195 3 gusting 8 20.0
2015-Jun-30 00:43 197 2 gusting 10 19.4
2015-Jun-30 00:39 193 4 gusting 10 19.4
2015-Jun-30 00:29 189 4 gusting 10 19.4
2015-Jun-30 00:23 187 6 gusting 11 19.4
2015-Jun-30 00:19 189 6 gusting 11 19.4
2015-Jun-30 00:13 198 3 gusting 11 19.4
2015-Jun-30 00:09 206 2 gusting 8 19.4
2015-Jun-29 23:59 211 2 gusting 9 18.9
2015-Jun-29 23:53 212 2 gusting 8 18.9
2015-Jun-29 23:49 213 3 gusting 8 18.3
2015-Jun-29 23:39 213 3 gusting 8 18.3
2015-Jun-29 23:29 217 3 gusting 8 18.3
2015-Jun-29 23:19 212 3 gusting 11 17.8
2015-Jun-29 23:13 212 2 gusting 8 17.8
2015-Jun-29 23:09 214 2 gusting 8 17.8
2015-Jun-29 22:59 222 3 gusting 8 17.8
2015-Jun-29 22:53 223 2 gusting 8 17.2
2015-Jun-29 22:49 223 2 gusting 9 17.2
2015-Jun-29 22:39 223 1 gusting 8 17.2
2015-Jun-29 22:29 221 2 gusting 7 16.7
2015-Jun-29 22:19 221 2 gusting 8 16.7
2015-Jun-29 22:09 222 3 gusting 10 16.1
2015-Jun-29 21:59 221 1 gusting 6 15.6
2015-Jun-29 21:49 222 0 gusting 5 15.0
2015-Jun-29 21:39 221 1 gusting 6 15.0
2015-Jun-29 21:33 221 0 gusting 5 14.4
2015-Jun-29 21:29 221 0 gusting 3 14.4
2015-Jun-29 21:23 221 13.9
2015-Jun-29 21:19 222 13.9
2015-Jun-29 21:13 222 13.9
2015-Jun-29 21:09 221 13.9
2015-Jun-29 21:03 221 13.3
2015-Jun-29 20:59 222 13.3
2015-Jun-29 20:53 222 13.3
2015-Jun-29 20:49 13.9
2015-Jun-29 20:39 222 13.3
2015-Jun-29 20:33 13.9
2015-Jun-29 20:29 13.9
2015-Jun-29 20:19 222 13.9
2015-Jun-29 20:09 222 13.9
2015-Jun-29 20:03 222 13.9
2015-Jun-29 19:59 222 13.9
2015-Jun-29 19:49 222 13.9
2015-Jun-29 19:39 222 14.4
2015-Jun-29 19:33 222 14.4
2015-Jun-29 19:29 222 14.4
2015-Jun-29 19:19 221 14.4
2015-Jun-29 19:09 222 14.4
2015-Jun-29 19:03 222 14.4
2015-Jun-29 18:59 222 14.4
2015-Jun-29 18:49 222 15.0
2015-Jun-29 18:39 222 15.0
2015-Jun-29 18:33 222 15.0
2015-Jun-29 18:29 222 15.0
2015-Jun-29 18:19 222 15.0
2015-Jun-29 18:09 222 15.0
2015-Jun-29 18:03 221 15.0
2015-Jun-29 17:59 221 0 gusting 5 15.0
2015-Jun-29 17:49 221 0 gusting 3 15.0
2015-Jun-29 17:43 221 1 gusting 5 15.0
2015-Jun-29 17:39 221 1 gusting 6 15.0
2015-Jun-29 17:29 221 1 gusting 6 15.0
2015-Jun-29 17:19 221 1 gusting 6 15.0
2015-Jun-29 17:09 221 1 gusting 5 15.0
2015-Jun-29 17:03 221 1 gusting 5 15.0
2015-Jun-29 16:59 221 0 gusting 5 15.0
2015-Jun-29 16:49 221 1 gusting 6 15.0
2015-Jun-29 16:43 221 1 gusting 5 15.0
2015-Jun-29 16:39 221 1 gusting 8 15.0
2015-Jun-29 16:29 220 3 gusting 7 15.0
2015-Jun-29 16:19 219 1 gusting 6 15.0
2015-Jun-29 16:09 220 2 gusting 8 15.0
2015-Jun-29 15:59 220 1 gusting 6 15.0
2015-Jun-29 15:49 220 1 gusting 5 15.0
2015-Jun-29 15:39 220 1 gusting 5 15.0
2015-Jun-29 15:29 220 1 gusting 7 15.0
2015-Jun-29 15:19 220 1 gusting 5 15.0
2015-Jun-29 15:09 220 1 gusting 6 15.0
2015-Jun-29 15:03 220 1 gusting 6 15.0
2015-Jun-29 14:59 220 1 gusting 6 15.6
2015-Jun-29 14:49 220 2 gusting 7 15.6
2015-Jun-29 14:39 220 2 gusting 6 15.6
2015-Jun-29 14:29 220 3 gusting 6 15.6
2015-Jun-29 14:19 220 2 gusting 6 15.6
2015-Jun-29 14:09 220 2 gusting 6 15.6
2015-Jun-29 13:59 220 1 gusting 7 15.6
2015-Jun-29 13:49 220 1 gusting 6 15.6
2015-Jun-29 13:39 219 1 gusting 6 15.6
2015-Jun-29 13:29 220 0 gusting 3 15.6
2015-Jun-29 13:25 220 0 gusting 5 15.6
2015-Jun-29 13:15 220 1 gusting 6 15.6
2015-Jun-29 13:05 220 0 gusting 5 15.6
2015-Jun-29 12:55 220 0 gusting 3 15.6
2015-Jun-29 12:45 220 0 gusting 5 15.6
2015-Jun-29 12:35 220 1 gusting 5 15.6
2015-Jun-29 12:25 220 0 gusting 5 15.6
2015-Jun-29 12:15 220 1 gusting 6 15.6
2015-Jun-29 12:05 220 1 gusting 6 15.6
2015-Jun-29 11:55 220 2 gusting 7 15.6
2015-Jun-29 11:45 220 1 gusting 8 15.6
2015-Jun-29 11:35 220 2 gusting 7 15.6
2015-Jun-29 11:25 220 0 gusting 3 16.1
2015-Jun-29 11:15 220 0 gusting 5 16.1
2015-Jun-29 11:05 220 1 gusting 5 16.1